"Pseudo-MPEC" for P11TBMV

Created 2024 Apr 27 16:22:07 UT using Find_Orb

Click here for an explanation of pseudo-MPECs

 
 Astrometry: 
     P11TBMV* C2024 04 17.vF/5/=sWdLXOemcAstrometrySt^.Credacted;Vml,@clickw0F51
     P11TBMV  C2024 04 179Z6[N%DESU/%here3^DZxT`,wpS;bfor_\9oOth?/pES;xbJWucUF51
     P11TBMV  C2024 04 17eT/K``v9!^S7xgLj`5:_BU]*ZoYCK4.%w3?]/X8HeexplanationF51

Station data:
(F51) Pan-STARRS 1, Haleakala  (N20.707234 W156.255910)  US/Hawaii.
   Observers J. Bulger, T. Lowe, A. Schultz, M. Willman. Measurers K.
   Chambers, S. Chastel, T. de Boer, L. Denneau, J. Fairlamb, H. Flewelling,
   M. Huber, C.-C. Lin, E. Magnier, Y. Ramanjooloo, R. Wainscoat, R. Weryk.
   1.8-m Ritchey-Chrétien + CCD.

Orbital elements:  P11TBMV
   Perihelion 2024 Mar 13.53169 +/- 38.5 TT = 12:45:38 (JD 2460383.03169)
Epoch 2024 Apr 17.0 TT = JDT 2460417.5   Earth MOID: 0.0620   Ma: 0.0130
M  11.21966080 +/- 18               (J2000 ecliptic)             AutoNEOCP
n   0.32550655 +/- 0.276            Peri.  124.32649 +/- 70
a   2.09296945 +/- 1.18             Node    46.27477 +/- 48
e   0.5016182 +/- 0.253             Incl.    2.70397 +/- 3.3
P   3.03                   H 25.17  G  0.15   U 11.9  SR
q 1.04309781 +/- 0.217    Q 3.14284109 +/- 49
From 3 observations 2024 Apr. 17 (54.6 min); mean residual 0".08
Residuals in arcseconds: 
240417 F51  .04-  .03+    240417 F51  .12+  .09-    240417 F51  .08-  .06+    

Ephemerides (geocentric):
Date (UTC) HH   RA             Dec           delta  r     elong  mag " sig PA
---- --------  ------------   ------------  ------ ------ -----  --- --------
2024 04 27 16  14 35 13.810   -12 14 36.79  .16251 1.1688 176.1 21.9  70d  92
2024 04 27 17  14 35 16.474   -12 15 48.31  .16271 1.1691 176.1 21.9  70d  92
2024 04 27 18  14 35 19.131   -12 16 59.66  .16290 1.1693 176.1 21.9  70d  92
2024 04 27 19  14 35 21.781   -12 18 10.85  .16310 1.1695 176.1 21.9  70d  92
2024 04 27 20  14 35 24.424   -12 19 21.87  .16330 1.1697 176.2 21.9  70d  92
2024 04 27 21  14 35 27.060   -12 20 32.72  .16349 1.1699 176.2 21.9  70d  92
2024 04 27 22  14 35 29.689   -12 21 43.41  .16369 1.1701 176.2 21.9  70d  92
2024 04 27 23  14 35 32.311   -12 22 53.93  .16389 1.1703 176.2 21.9  70d  92
2024 04 28 00  14 35 34.926   -12 24 04.29  .16408 1.1705 176.3 21.9  70d  92
2024 04 28 01  14 35 37.534   -12 25 14.48  .16428 1.1708 176.3 21.9  70d  92
2024 04 28 02  14 35 40.135   -12 26 24.51  .16448 1.1710 176.3 21.9  70d  92
2024 04 28 03  14 35 42.730   -12 27 34.38  .16468 1.1712 176.4 21.9  70d  92
2024 04 28 04  14 35 45.317   -12 28 44.08  .16487 1.1714 176.4 21.9  70d  92
2024 04 28 05  14 35 47.897   -12 29 53.62  .16507 1.1716 176.4 21.9  70d  92
2024 04 28 06  14 35 50.471   -12 31 03.00  .16527 1.1718 176.4 21.9  70d  93
2024 04 28 07  14 35 53.038   -12 32 12.21  .16547 1.1720 176.5 21.9  70d  93
2024 04 28 08  14 35 55.598   -12 33 21.27  .16566 1.1722 176.5 21.9  70d  93
2024 04 28 09  14 35 58.152   -12 34 30.16  .16586 1.1725 176.5 21.9  70d  93
2024 04 28 10  14 36 00.698   -12 35 38.89  .16606 1.1727 176.6 21.9  70d  93
2024 04 28 11  14 36 03.238   -12 36 47.46  .16626 1.1729 176.6 21.9  70d  93
2024 04 28 12  14 36 05.772   -12 37 55.88  .16646 1.1731 176.6 21.9  70d  93
2024 04 28 13  14 36 08.298   -12 39 04.13  .16666 1.1733 176.6 21.9  70d  93
2024 04 28 14  14 36 10.818   -12 40 12.23  .16686 1.1735 176.7 21.9  70d  93
2024 04 28 15  14 36 13.332   -12 41 20.16  .16706 1.1737 176.7 21.9  70d  93
2024 04 28 16  14 36 15.839   -12 42 27.94  .16725 1.1740 176.7 21.9  70d  93
2024 04 28 17  14 36 18.339   -12 43 35.56  .16745 1.1742 176.7 21.9  70d  93
2024 04 28 18  14 36 20.833   -12 44 43.03  .16765 1.1744 176.8 21.9  70d  93
2024 04 28 19  14 36 23.320   -12 45 50.34  .16785 1.1746 176.8 21.9  70d  93
2024 04 28 20  14 36 25.801   -12 46 57.49  .16805 1.1748 176.8 21.9  70d  93
2024 04 28 21  14 36 28.275   -12 48 04.48  .16825 1.1750 176.9 21.9  70d  93
2024 04 28 22  14 36 30.743   -12 49 11.32  .16845 1.1752 176.9 21.9  71d  93
2024 04 28 23  14 36 33.204   -12 50 18.01  .16865 1.1755 176.9 21.9  71d  93
2024 04 29 00  14 36 35.659   -12 51 24.54  .16886 1.1757 176.9 21.9  71d  93
2024 04 29 01  14 36 38.108   -12 52 30.91  .16906 1.1759 177.0 21.9  71d  93
2024 04 29 02  14 36 40.550   -12 53 37.14  .16926 1.1761 177.0 21.9  71d  93
2024 04 29 03  14 36 42.986   -12 54 43.20  .16946 1.1763 177.0 21.9  71d  93
2024 04 29 04  14 36 45.416   -12 55 49.12  .16966 1.1765 177.0 21.9  71d  93
2024 04 29 05  14 36 47.840   -12 56 54.88  .16986 1.1767 177.1 21.9  71d  93
2024 04 29 06  14 36 50.257   -12 58 00.49  .17006 1.1770 177.1 21.9  71d  93
2024 04 29 07  14 36 52.668   -12 59 05.95  .17026 1.1772 177.1 21.9  71d  93
2024 04 29 08  14 36 55.073   -13 00 11.26  .17047 1.1774 177.2 22.0  71d  93
2024 04 29 09  14 36 57.471   -13 01 16.42  .17067 1.1776 177.2 22.0  71d  93
2024 04 29 10  14 36 59.864   -13 02 21.42  .17087 1.1778 177.2 22.0  71d  93
2024 04 29 11  14 37 02.250   -13 03 26.28  .17107 1.1780 177.2 22.0  71d  93
2024 04 29 12  14 37 04.630   -13 04 30.98  .17127 1.1783 177.3 22.0  71d  93
2024 04 29 13  14 37 07.004   -13 05 35.54  .17148 1.1785 177.3 22.0  71d  93
2024 04 29 14  14 37 09.372   -13 06 39.95  .17168 1.1787 177.3 22.0  71d  93
2024 04 29 15  14 37 11.734   -13 07 44.21  .17188 1.1789 177.3 22.0  71d  93